Regional Weather Roundup
Issued by NWS

Home | Current Version | Previous Version | Text Only | Print | Product List | Glossary On
Versions: 1 2 3 4 5 6 7 8 9 10 11 12 13 14 15 16 17 18 19 20 21 22 23 24 25 26 27 28 29 30 31 32 33 34 35 36 37 38 39 40 41 42 43 44 45 46 47 48 49 50
000
ASUS43 KMKX 210821
RWRWI

WISCONSIN REGIONAL WEATHER ROUNDUP
NATIONAL WEATHER SERVICE MILWAUKEE/SULLIVAN WI
200 AM CST FRI NOV 21 2014

NOTE: "FAIR" INDICATES FEW OR NO CLOUDS BELOW 12,000 FEET WITH NO
SIGNIFICANT WEATHER AND/OR OBSTRUCTIONS TO VISIBILITY.

WIZ001-002-006>008-014>016-023>028-210900-
NORTHWEST WISCONSIN

CITY           SKY/WX    TMP DP  RH WIND       PRES   REMARKS
SUPERIOR ARPT  PTCLDY     0  -4  82 W5        30.24S WCI -10
ASHLAND        PTCLDY     0  -6  76 SW7       30.24R WCI -13
HAYWARD        PTCLDY   -13 -19  75 CALM      30.23R
SIREN          PTCLDY    -8 -12  81 CALM      30.25R
CUMBERLAND     PTCLDY    -4  -8  84 S3        30.24R
RICE LAKE      PTCLDY    -7 -12  80 CALM      30.28R
CHETEK         PTCLDY    -8 -12  83 S3        30.27R
LADYSMITH      CLEAR     -8 -13  80 CALM      30.26R
EAU CLAIRE     PTCLDY     1  -4  79 SW3       30.29R
MENOMONIE      PTCLDY    -3  -8  79 CALM      30.29S
NEW RICHMOND   PTCLDY     0  -4  85 S3        30.26S
OSCEOLA        PTCLDY    -5  -9  82 CALM      30.29S
$$

WIZ003>005-009-010-017-018-210900-
NORTH CENTRAL WISCONSIN

CITY           SKY/WX    TMP DP  RH WIND       PRES   REMARKS
MANITOWISH WTR PTCLDY    -9 -13  83 CALM      30.17S
ARBOR VITAE    PTCLDY     1  -3  81 CALM      30.17S
WOODRUFF       PTCLDY     1  -3  81 CALM      30.17S
RHINELANDER    PTCLDY    -4  -8  83 SW5       30.19R WCI -15
EAGLE RIVER    CLEAR     -4  -8  82 SW5       30.17R WCI -14
LAND O LAKES   CLEAR     -9 -13  81 W3        30.17R
PHILLIPS       PTCLDY   -13 -17  81 CALM      30.20S
TOMAHAWK       PTCLDY   -13 -17  80 CALM      30.22R
MEDFORD        CLEAR     -6  -9  84 CALM      30.23R
MERRILL        PTCLDY    -9 -12  84 CALM      30.24R
$$

WIZ029-030-035-036-043>047-210900-
CENTRAL WISCONSIN

CITY           SKY/WX    TMP DP  RH WIND       PRES   REMARKS
WAUSAU         PTCLDY     0  -5  79 CALM      30.25R
MOSINEE        PTCLDY     1  -2  85 SW5       30.27R WCI  -8
MARSHFIELD     CLEAR     -1  -7  75 CALM      30.26R
STEVENS POINT  PTCLDY    -6  -9  84 CALM      30.29R
WAUPACA        PTCLDY     6  -1  74 CALM      30.31R
WAUTOMA        PTCLDY    -5 -11  75 CALM      30.33R
WISC RAPIDS    CLEAR     -3  -8  79 CALM      30.31R
CAMP DOUGLAS   PTCLDY    -2  -4  91 CALM      30.32R
$$

WIZ011>013-019>022-031-037>040-048>050-210900-
NORTHEAST WISCONSIN

CITY           SKY/WX    TMP DP  RH WIND       PRES   REMARKS
ANTIGO         PTCLDY    -8 -10  88 CALM      30.22R
SHAWANO        CLEAR      7   0  72 W5        30.30R WCI  -2
OCONTO         CLEAR      6   0  75 W7        30.29R WCI  -5
STURGEON BAY   CLEAR     12   3  67 W6        30.27R WCI   3
GREEN BAY      CLEAR      7   0  73 W10       30.30R WCI  -8
MANITOWOC      CLEAR      9   3  77 W7        30.31R WCI  -2
APPLETON       CLEAR      5  -2  72 W10       30.30R WCI -10
CLINTONVILLE   CLEAR      5  -2  72 CALM      30.30R
OSHKOSH        CLEAR      7  -2  66 W7        30.31R WCI  -5
$$

WIZ032>034-041-042-053>061-210900-
SOUTHWEST WISCONSIN

CITY           SKY/WX    TMP DP  RH WIND       PRES   REMARKS
LA CROSSE      PTCLDY     5   0  79 SE6       30.34R WCI  -6
SPARTA         PTCLDY    -6 -10  83 CALM      30.33R
VIROQUA        PTCLDY     6   2  84 CALM      30.28R
BOSCOBEL       PTCLDY     2  -3  80 CALM      30.36R HAZE
PRAIRIE DU CHI PTCLDY     3  -2  81 CALM      30.36R
PLATTEVILLE    PTCLDY     8   4  84 CALM      30.34R
$$

WIZ056-057-062-063-064-067-068-210900-
SOUTH CENTRAL WISCONSIN

CITY           SKY/WX    TMP DP  RH WIND       PRES   REMARKS
REEDSBURG      FAIR       1  -2  85 CALM      30.32R
BARABOO/DELLS  FAIR       3  -3  78 CALM      30.31S
LONE ROCK      MOCLDY     2  -5  72 CALM      30.35R
MINERAL POINT  PTCLDY    10   3  72 CALM      30.31R
MADISON        PTCLDY     4  -2  76 CALM      30.33R
MIDDLETON      PTCLDY     7   0  71 CALM      30.34R
WATERTOWN      PTCLDY     3  -2  79 CALM      30.33R
MONROE         MOCLDY    10   5  79 W3        30.32R
JANESVILLE     PTCLDY     9   3  78 CALM      30.35R
$$

WIZ051-052-058>065-066-070>072-210900-
SOUTHEAST WISCONSIN

CITY           SKY/WX    TMP DP  RH WIND       PRES   REMARKS
MILWAUKEE      CLEAR     13  -1  54 NW9       30.33R WCI   1
WAUKESHA       CLEAR      9   0  66 W5        30.33R WCI   0
MILWAUKEE/TIMM CLEAR      9   0  66 CALM      30.34R
RACINE         CLEAR     10  -1  61 W5        30.35R WCI   2
BURLINGTON     PTCLDY     4  -2  75 W5        30.34R WCI  -6
KENOSHA        CLEAR      7  -1  70 W6        30.34R WCI  -3
FOND DU LAC    CLEAR      5  -2  72 SE7       30.32R WCI  -7
SHEBOYGAN      CLEAR      9   0  67 W9        30.31R WCI  -4
WEST BEND      CLEAR      9   0  66 W5        30.31R WCI   0
JUNEAU         CLEAR      4  -3  72 SW5       30.33R WCI  -5
$$

LSZ147-162-210900-
LAKE SUPERIOR

STATION/POSITION TIME  TEMP    WIND        PRES    WAVE
                       AIR SEA DIR/SP/G            HT/PER
                 (UTC) (F)     (DEG/KT/KT) (MB)    (FT/S)
DEVILS ISLAND    0800   16     260/  9/ 12 1024.5R
PORT WING        0740    7     190/  7/ 10 1023.7S
SAXON HARBOR     0700    7     200/  7/  9 1023.7R
$$

LMZ867-665-643>646-210900-
LAKE MICHIGAN

STATION/POSITION TIME  TEMP    WIND        PRES    WAVE
                       AIR SEA DIR/SP/G            HT/PER
                 (UTC) (F)     (DEG/KT/KT) (MB)    (FT/S)
CHAMBERS ISLAND  0700   15     270/  6/ 12 1024.0R
N MID LAKE BUOY  0750   21 42  330/ 17/ 21 1024.6R   3/ 4
NORTHPORT PIER   0805   18     290/  9/ 20 1024.4R
SISTER BAY       0543          330/ 25/ 29   N/A
ALGOMA LAKESHORE 0728          280/  4/  6   N/A
KEWAUNEE LAKESHO 0800    9     280/  6/  8 1024.7R
SHEBOYGAN LAKESH 0800   11 34  260/ 13/ 16 1028.1R
PORT WASHINGTON  0700   12     290/  6/  9 1027.4R
ATWATER BUOY     0800   17     290/ 16/ 19 1027.4R
MILWAUKEE LAKESH 0800   14     300/  9/ 11   N/A
S MID LAKE BUOY  0750   22 43  310/ 16/ 21 1027.7R   5/ 6
KENOSHA   LAKESH 0800   13     270/  7/  8 1027.8R
$$

TC  - TEMPERATURE IN CELSIUS
VSB - VISIBILITY IN STATUTE MILES
WCI - WIND CHILL INDEX
HX  - HEAT INDEX



USA.gov is the U.S. government's official web portal to all federal, state and local government web resources and services.